Weather Roundup
Issued by NWS

Home | Current Version | Previous Version | Graphics & Text | Print | Product List | Glossary Off
Versions: 1 2 3 4 5 6 7 8 9 10 11 12 13 14 15 16 17 18 19 20 21 22 23 24 25 26 27 28 29 30 31 32 33 34 35 36 37 38 39 40 41 42 43 44 45 46 47 48 49 50

000
NZUS93 KARX 200210
HRRWXR

CURRENT HOURLY OBSERVATIONS ACROSS
MUCH OF THE UPPER MISSISSIPPI VALLEY
NATIONAL WEATHER SERVICE LA CROSSE WI
900 PM CDT FRI SEP 19 2014


...SOUTHEAST MINNESOTA...


CITY           SKY/WX    TMP DP  RH WIND       PRES   REMARKS
ROCHESTER      PTCLDY    70  62  76 S20G31    29.76F
ROCHESTER/MAYO FAIR      72  60  67 S16G28    29.74F
WINONA         PTCLDY    72  59  64 S10       29.74F
AUSTIN         PTCLDY    70  63  78 S13       29.77S
ALBERT LEA     PTCLDY    73  66  78 S9G17     29.76R
DODGE CENTER   PTCLDY    72  64  78 S18G26    29.74S
PRESTON        CLOUDY    67  64  87 S12       29.80F
OWATONNA         N/A     75  64  69 S14G22    29.72S
FARIBAULT      MOCLDY    79  63  57 S10G17    29.71R
$$

...ELSEWHERE IN MINNESOTA...


CITY           SKY/WX    TMP DP  RH WIND       PRES   REMARKS
MINNEAPOLIS    LGT RAIN  71  64  78 S3        29.67S
INTNL FALLS    CLOUDY    63  61  93 VRB3      29.58R
DULUTH         CLOUDY    64  61  90 W8        29.64S FOG
RED WING       TSTM      75  64  69 W8        29.69R
REDWOOD FALLS  MOCLDY    74  67  78 NW5       29.69R
MANKATO        MOCLDY    79  64  61 SW12G20   29.70R
WORTHINGTON    PTCLDY    73  66  78 W9        29.75R
FAIRMONT       PTCLDY    75  59  57 S9        29.73R
$$

...SOUTHWEST WISCONSIN...


CITY           SKY/WX    TMP DP  RH WIND       PRES   REMARKS
LA CROSSE      MOCLDY    71  58  63 S9        29.80S
PRAIRIE DU CHI CLEAR     70  54  56 S9G17     29.84R
BOSCOBEL       CLEAR     70  54  56 SW8       29.85R
LONE ROCK      CLEAR     72  52  49 SW8       29.86R
PLATTEVILLE    CLEAR     67  54  62 S13G21    29.88F
FORT MC COY    PTCLDY    67  53  61 CALM      29.82F
CAMP DOUGLAS   PTCLDY    66  55  68 S3        29.82F
VIROQUA        FAIR      64  55  72 S8        29.84F
WIS DELLS      CLEAR     67  50  54 SW18G24   29.84S
$$

...ELSEWHERE IN WISCONSIN...


CITY           SKY/WX    TMP DP  RH WIND       PRES   REMARKS
MILWAUKEE      MOCLDY    66  46  48 S13       29.90F
MADISON        PTCLDY    68  53  58 S14G22    29.86F
GREEN BAY      CLOUDY    67  51  56 SW9       29.83R
EAU CLAIRE     CLOUDY    72  59  63 S13       29.71F
BLACK RVR FLS  FAIR      68  55  62 S8        29.77F
MEDFORD        CLOUDY    64  55  71 S10G17    29.76F
WAUSAU         MOCLDY    66  53  63 S14G23    29.77F
WIS RAPIDS     CLOUDY    66  53  63 S6        29.83F
MARSHFIELD     MOCLDY    66  54  65 S13       29.79F
RICE LAKE      CLOUDY    69  61  76 S9        29.70S
$$

...NORTHEAST IOWA...


CITY           SKY/WX    TMP DP  RH WIND       PRES   REMARKS
WATERLOO       CLEAR     69  60  73 S16       29.83R
DUBUQUE        CLEAR     66  55  67 S21       29.87F
DECORAH        PTCLDY    68  59  73 S12G18    29.83R
MASON CITY     CLEAR     71  66  84 S13       29.80S
CHARLES CITY   CLEAR     68  63  83 S12G17    29.83R
OELWEIN        CLEAR     68  59  73 S15       29.86R
$$

...ELSEWHERE IN IOWA...


CITY           SKY/WX    TMP DP  RH WIND       PRES   REMARKS
DES MOINES     PTCLDY    72  65  78 S16       29.85S
IOWA CITY      CLEAR     68  58  70 S12       29.91S
FORT DODGE     CLEAR     70  64  83 S12       29.82S
MARSHALLTOWN   CLEAR     69  62  78 S13       29.85R
CEDAR RAPIDS   CLEAR     67  59  75 S15       29.87F
$$

...NORTHERN ILLINOIS...


CITY           SKY/WX    TMP DP  RH WIND       PRES   REMARKS
CHICAGO-OHARE  PTCLDY    65  46  50 S12       29.98F
DUPAGE         CLEAR     62  48  60 S9        29.97F
CHICAGO-MIDWAY MOCLDY    69  48  47 S9        29.99F
MOLINE         CLEAR     67  54  63 S8        29.93S
ROCKFORD       PTCLDY    64  50  60 S14       29.96R
STERLING       CLEAR     63  54  72 S5        29.95S
PEORIA         CLEAR     66  54  65 S7        29.99F
$$

NOTE: "FAIR" INDICATES FEW OR NO CLOUDS BELOW 12,000 FEET WITH NO
SIGNIFICANT WEATHER AND/OR OBSTRUCTIONS TO VISIBILITY. WIND
SPEEDS ARE IN MILES-PER-HOUR.



USA.gov is the U.S. government's official web portal to all federal, state and local government web resources and services.